Regional Weather Roundup
Issued by NWS

Home | Current Version | Previous Version | Text Only | Print | Product List | Glossary On
Versions: 1 2 3 4 5 6 7 8 9 10 11 12 13 14 15 16 17 18 19 20 21 22 23 24 25 26 27 28 29 30 31 32 33 34 35 36 37 38 39 40 41 42 43 44 45 46 47 48 49 50
000
ASUS44 KLUB 011410
RWRTX
WEST TEXAS WEATHER ROUNDUP
NATIONAL WEATHER SERVICE LUBBOCK TX
900 AM CDT TUE SEP 01 2015

NOTE: "FAIR" INDICATES FEW OR NO CLOUDS BELOW 12,000 FEET WITH NO
SIGNIFICANT WEATHER AND/OR OBSTRUCTIONS TO VISIBILITY.

TXZ004-006>008-010-012-014-016-OKZ002-011500-
TEXAS PANHANDLE/OKLAHOMA PANHANDLE

CITY           SKY/WX    TMP DP  RH WIND       PRES   REMARKS
AMARILLO       SUNNY     69  55  60 S15       30.08R
BORGER         SUNNY     72  58  61 S8        30.05R
CANADIAN       SUNNY     74  64  69 SW10      30.01F
DALHART        MOSUNNY   71  53  52 SW7       30.08R
DUMAS          SUNNY     71  55  56 S10       30.06R
GUYMON         MOSUNNY   71  55  56 SW6       30.03R
HEREFORD       SUNNY     71  58  65 S12       30.10S
PAMPA          SUNNY     72  60  67 S13       30.07R
PERRYTON       SUNNY     73  60  63 S15       30.03S
$$

TXZ026-029-035-045-048-011500-
SOUTHERN PANHANDLE/SOUTH PLAINS/ROLLING PLAINS

CITY           SKY/WX    TMP DP  RH WIND       PRES   REMARKS
CHILDRESS      SUNNY     75  59  57 S6        30.03S
SEMINOLE       SUNNY     69  57  66 CALM      30.10R
LUBBOCK        MOSUNNY   71  58  63 S9        30.08S
PLAINVIEW      SUNNY     70  58  66 S10       30.07S
SNYDER         SUNNY     72  63  71 S8        30.07S
$$

TXZ052-054-060>062-072-078-127-140-154-169-011500-
PERMIAN BASIN/CONCHO VALLEY/BIG COUNTRY/EDWARDS PLATEAU

CITY           SKY/WX    TMP DP  RH WIND       PRES   REMARKS
ABILENE        SUNNY     76  67  73 SW14      30.05R
BIG SPRING     SUNNY     70  60  71 SE14      30.09S
BRADY          SUNNY     75  70  83 SE7       30.06R
JUNCTION       CLOUDY    72  68  87 S6        30.06R
MIDLAND        SUNNY     72  61  68 S12       30.06S
SAN ANGELO     SUNNY     74  66  76 S8        30.05R
SONORA         MOSUNNY   72  68  88 SE6       30.11R
SWEETWATER     SUNNY     75  63  65 S17       30.08F
WINK           SUNNY     73  61  65 SE14      30.03R
$$

TXZ055-058-074-075-080-082-011500-
FAR WEST/SOUTHWEST MOUNTAINS/TRANS PECOS

CITY           SKY/WX    TMP DP  RH WIND       PRES   REMARKS
ALPINE         SUNNY     71  53  52 W5        30.18R
DRYDEN           N/A     72  64  76 S8        30.04R
EL PASO        MOSUNNY   77  48  35 NW3       30.06R
FORT STOCKTON  SUNNY     72  61  68 SE12      30.05R
GUADALUPE PASS SUNNY     73  41  31 SW7       30.18R
MARFA          SUNNY     64  54  68 CALM      30.17R
PECOS          SUNNY     73  59  61 E9        30.02R
$$

TXZ014-016-019-021>030-083-011500
TEXAS TECH WEST TEXAS MESONET/TEXAS PANHANDLE/NORTHERN SOUTH PLAINS

CITY           SKY/WX    TMP DP  RH WIND       PRES   REMARKS
ABERNATHY 5ENE   N/A     71  57  63 S10       30.10S
AMARILLO 9NNE    N/A     72  56  57 S15       30.05F
AMARILLO 7SSE    N/A     69  57  64 S7        30.10S
AMHERST 1NE      N/A     67  56  69 S3        30.11S
BOOTLEG 11WNW    N/A     72  55  54 S20       30.13R
CANADIAN 6E      N/A     74  62  66 SE8       30.01S
CAPROCK CYN SP   N/A     77  58  52 S15       30.05S
CHILDRESS 2NNE   N/A     76  59  56 S6        30.03S
CLARENDON 2WSW   N/A     73  58  58 S10       30.05F
CLAUDE 12SW      N/A     72  57  59 S7        30.09S
DIMMITT 2NE      N/A     66  55  67 S10       30.11S
FLOYDADA 2NNE    N/A     72  56  57 S10       30.09S
FRIONA 2NE       N/A     69  55  60 S10       30.12R
GOODLETT 3W      N/A     77  59  53 SE5       30.02S
HART 3N          N/A     66  57  71 S8        30.11S
HEREFORD 2NW     N/A     67  54  63 S9        30.10S
MCLEAN 1E        N/A     71  60  66 S10       30.04S
MEMPHIS 1NE      N/A     74  61  64 SE3       30.03S
MULESHOE 2SSW    N/A     69  56  64 S8        30.11R
OLTON 6S         N/A     66  57  71 S7        30.10R
PALO DURO SP     N/A     69  56  63 S9        30.10S
PAMPA 2E         N/A     68  59  74 S9        30.06S
PLAINVIEW 1S     N/A     70  59  68 S7        30.08F
SILVERTON 7ESE   N/A     74  57  55 S15       30.08S
TULIA 2ENE       N/A     69  59  70 S9        30.10R
TURKEY 2WSW      N/A     75  60  61 SW5       30.04S
UMBARGER 3NNE    N/A     69  56  63 S12       30.10S
$$

TXZ033>036-039>041-045>048-011500
TEXAS TECH WEST TEXAS MESONET/SOUTH PLAINS

CITY           SKY/WX    TMP DP  RH WIND       PRES   REMARKS
AIKEN 3WSW       N/A     70  58  66 S9        30.10S
ANDREWS 2NE      N/A     73  60  63 S10       30.08R
ANTON 6SSW       N/A     70  58  66 S10       30.09S
BROWNFIELD 2S    N/A     68  56  66 SE7       30.09S
DENVR CTY 7WNW   N/A     69  56  64 S10       30.10R
GAIL 2ESE        N/A     73  62  68 S5        30.07R
LAMESA 2SE       N/A     72  62  69 S10       30.08R
LEVELLAND 4S     N/A     69  57  65 S9        30.10S
LUBBOCK 3WNW     N/A     73  56  57 S12       30.09S
MORTON 1ENE      N/A     67  56  67 S8        30.11R
ODONNELL 1N      N/A     72  58  62 S7        30.08S
PLAINS 3N        N/A     70  56  60 S12       30.11R
RALLS 1SE        N/A     72  58  62 S7        30.09S
REESE CENTER     N/A     70  56  61 S14       30.09S
SEAGRAVES 1SW    N/A     68  57  68 S3        30.09S
SEMINOLE 2NNE    N/A     70  58  65 SE3       30.09R
SLATON 2NE       N/A     72  58  62 S15       30.08S
SNYDER 3E        N/A     74  63  67 S9        30.06R
SUNDOWN 8SW      N/A     69  55  60 S8        30.11R
TAHOKA 3NNE      N/A     72  60  66 S7        30.09R
WOLFFORTH 6SSW   N/A     69  57  65 S8        30.09S
$$

TXZ031-032-036>038-042>044-011500-
TEXAS TECH WEST TEXAS MESONET/ROLLING PLAINS

CITY           SKY/WX    TMP DP  RH WIND       PRES   REMARKS
ASPERMONT 3NE    N/A     76  62  59 S7        30.04R
FLUVANNA 3WNW    N/A     73  61  65 S8        30.07R
GRAHAM 5SSW      N/A     73  59  62 S6        30.08S
GUTHRIE 10WSW    N/A     76  57  52 S8        30.03S
HASKELL 1NW      N/A     75  63  64 S8        30.03S
JAYTON 1SSE      N/A     77  60  55 S1        30.05R
KNOX CITY 3NW    N/A     77  62  59 S8        30.03S
LK A HENRY 1NW   N/A     77  62  59 SW10      30.04S
ODELL 4ENE       N/A     76  66  70 SE5       30.03R
POST 1NE         N/A     76  60  57 S9        30.05S
RRING SPRGS 3N   N/A     75  61  60 SW10      30.06S
SEYMOUR 3NW      N/A     76  64  66 S9        30.02S
SPUR 1W          N/A     74  57  55 CALM      30.04S
WEINERT 2NNE     N/A     78  65  64 S12       30.04R
WHITE RVR 6NE    N/A     74  58  55 S6        30.06S
$$

TXZ052-054-060>062-072-078-127-140-154-169-011500-
TEXAS TECH WEST TEXAS MESONET/PERMIAN BASIN/
CONCHO VALLEY/BIG COUNTRY/EDWARDS PLATEAU

CITY           SKY/WX    TMP DP  RH WIND       PRES   REMARKS
JUNCTION 1SSW    N/A     73  68  83 S3        30.07R
MERTZON 3NNE     N/A     74  65  74 S8        30.08R
SAN ANGELO 7NW   N/A     75  64  69 SE8       30.06S
STRLNG CT 4WSW   N/A     75  63  65 SE7       30.08R
ST LAWRNCE 5SW   N/A     71  62  72 SE9       30.08R
SWEETWATR 11SW   N/A     74  64  71 S12       30.09R
WALL 1E          N/A     73  65  75 N1        30.07R
$$

TXZ055-058-074-075-080-082-011500-
TEXAS TECH WEST TEXAS MESONET/FAR WEST/SOUTHWEST MOUNTAINS/TRANS PECOS

CITY           SKY/WX    TMP DP  RH WIND       PRES   REMARKS
PRSMN GAP BBNP   N/A     73  61  66 NE15      30.06R
$$




USA.gov is the U.S. government's official web portal to all federal, state and local government web resources and services.